Weather History for Rockport, TX

Change the Weather History Date:

Monday, February 11, 2013

  Actual Average Record
Temperature  
Mean Temperature 60 °F -  
Max Temperature 64 °F 68 °F 82 °F (2009)
Min Temperature 57 °F 48 °F 24 °F (1981)
Degree Days  
Heating Degree Days 4    
Growing Degree Days 10 (Base 50)    
Moisture  
Dew Point 55 °F    
Average Humidity 82    
Maximum Humidity 100    
Minimum Humidity 58    
Precipitation  
Precipitation 0.00 in - - ()
Sea Level Pressure  
Sea Level Pressure 29.94 in    
Wind  
Wind Speed 15 mph (NE)    
Max Wind Speed 20 mph    
Max Gust Speed 26 mph    
Visibility 7 miles    
Events Rain    
Averages and records for this station are not official NWS values.
T = Trace of Precipitation, MM = Missing Value Source: NWS Daily Summary

Daily Weather History Graph

Daily Weather History Graph

Search for Another Location

Airport:

Trip Planner

Search our weather history database for the weather conditions in past years. The results will help you decide how hot, cold, wet, or windy it might be!

Date:

Astronomy

Feb. 11, 2013 Rise Set
Actual Time 7:08 AM CST 6:16 PM CST
Civil Twilight 6:44 AM CST 6:40 PM CST
Nautical Twilight 6:16 AM CST 7:08 PM CST
Astronomical Twilight 5:49 AM CST 7:35 PM CST
Moon 7:46 AM CST (2/11) 7:59 PM CST (2/11)
Length of Visible Light 11h 55m
Length of Day
11h 07m
Waxing Crescent, 3% of the Moon is Illuminated
Feb 11
Waxing Crescent
Feb 17
First Quarter
Feb 25
Full
Mar 4
Last Quarter
Mar 11
New

Hourly Weather History & Observations

Time (CST) Temp. Dew Point Humidity Pressure Visibility Wind Dir Wind Speed Gust Speed Precip Events Conditions
12:53 AM 64.9 °F 51.1 °F 61% 29.93 in 10.0 mi NE 12.7 mph - N/A   Overcast
1:53 AM 64.0 °F 50.0 °F 60% 29.93 in 10.0 mi NE 11.5 mph - N/A   Overcast
2:53 AM 64.0 °F 48.9 °F 58% 29.94 in 10.0 mi NNE 15.0 mph - N/A   Overcast
3:53 AM 64.0 °F 51.1 °F 63% 29.92 in 10.0 mi NNE 11.5 mph - N/A   Overcast
4:53 AM 62.1 °F 48.0 °F 60% 29.92 in 10.0 mi NE 17.3 mph 26.5 mph N/A   Overcast
5:53 AM 63.0 °F 48.0 °F 58% 29.93 in 10.0 mi NE 17.3 mph 21.9 mph N/A   Overcast
6:53 AM 63.0 °F 48.9 °F 60% 29.94 in 10.0 mi NE 19.6 mph 25.3 mph N/A   Overcast
7:53 AM 62.1 °F 51.1 °F 67% 29.94 in 10.0 mi NE 19.6 mph 23.0 mph 0.00 in   Overcast
8:53 AM 63.0 °F 53.1 °F 70% 29.96 in 10.0 mi NE 16.1 mph - N/A   Overcast
9:53 AM 63.0 °F 55.0 °F 75% 29.99 in 10.0 mi ENE 13.8 mph 25.3 mph 0.00 in Rain Light Rain
10:53 AM 63.0 °F 55.9 °F 78% 30.00 in 10.0 mi ENE 16.1 mph 23.0 mph 0.00 in   Overcast
11:53 AM 62.1 °F 57.9 °F 86% 29.98 in 7.0 mi ENE 17.3 mph - N/A   Overcast
12:53 PM 63.0 °F 57.9 °F 84% 29.96 in 8.0 mi NE 16.1 mph - N/A   Overcast
1:11 PM 62.6 °F 59.0 °F 88% 29.95 in 7.0 mi ENE 18.4 mph 24.2 mph N/A   Overcast
1:53 PM 63.0 °F 57.9 °F 84% 29.94 in 7.0 mi NE 15.0 mph 21.9 mph N/A   Overcast
2:04 PM 62.6 °F 57.2 °F 82% 29.93 in 7.0 mi ENE 16.1 mph - N/A   Overcast
2:53 PM 63.0 °F 57.9 °F 84% 29.91 in 7.0 mi ENE 16.1 mph - 0.00 in   Overcast
3:40 PM 62.6 °F 59.0 °F 88% 29.90 in 7.0 mi NE 16.1 mph - N/A   Overcast
3:53 PM 62.1 °F 57.9 °F 86% 29.90 in 6.0 mi NE 11.5 mph - N/A   Overcast
4:53 PM 62.1 °F 57.9 °F 86% 29.91 in 6.0 mi NNE 17.3 mph - N/A   Overcast
5:53 PM 60.1 °F 57.0 °F 90% 29.92 in 8.0 mi NNE 11.5 mph 21.9 mph 0.00 in   Overcast
6:19 PM 60.8 °F 57.2 °F 88% 29.92 in 7.0 mi NE 13.8 mph - N/A   Overcast
6:53 PM 59.0 °F 57.0 °F 93% 29.92 in 6.0 mi NNE 15.0 mph - N/A   Overcast
7:32 PM 57.2 °F 57.2 °F 100% 29.93 in 4.0 mi NNE 13.8 mph - N/A   Overcast
7:53 PM 57.9 °F 57.0 °F 97% 29.93 in 4.0 mi NE 12.7 mph 21.9 mph N/A   Overcast
8:53 PM 57.9 °F 55.9 °F 93% 29.94 in 3.0 mi NE 11.5 mph - N/A   Overcast
9:21 PM 57.2 °F 55.4 °F 94% 29.93 in 2.5 mi NNE 13.8 mph - N/A   Overcast
9:28 PM 57.2 °F 55.4 °F 94% 29.93 in 3.0 mi NNE 13.8 mph - N/A   Overcast
9:48 PM 57.2 °F 55.4 °F 94% 29.93 in 2.5 mi NE 15.0 mph - N/A   Overcast
9:53 PM 57.0 °F 55.9 °F 96% 29.94 in 2.5 mi NE 13.8 mph - 0.00 in Rain Light Rain
10:15 PM 57.2 °F 55.4 °F 94% 29.94 in 3.0 mi NNE 9.2 mph - 0.00 in   Overcast
10:53 PM 57.0 °F 55.9 °F 96% 29.94 in 4.0 mi NE 12.7 mph - 0.00 in   Overcast
11:53 PM 57.9 °F 57.0 °F 97% 29.93 in 4.0 mi ENE 13.8 mph - N/A   Overcast